sat.trackr.live / text

‹ back to catalog

GALAXY 31 (G-31)

NORAD 54243 · 2022-153A

PAYLOAD ACTIVE UNKNOWN

§ Identity

Operator
Country
ITSO
Launch date
2022-11-12
Launch site
AFETR
Launch vehicle
Mass (kg)
RCS (m²)

Purposes: comms

External: N2YO · Heavens-Above · Gunter

§ Orbital elements

Epoch: 2026-09-20T04:02:38.833728Z

Period
1,436.10 min
Inclination
0.0160°
Eccentricity
0.0001349
Mean motion
1.00271622 rev/d
Perigee alt
35,781.0 km
Apogee alt
35,792.3 km
Semi-major
42,164.8 km
B*
0.0000e+0
RAAN
181.6038°
Arg perigee
343.9577°
Mean anomaly
133.1765°
Rev number
808

§ Raw data

GALAXY 31 (G-31)1 54243U 22153A   26263.16850502  .00000009  00000+0  00000+0 0  99942 54243   0.0160 181.6038 0001349 343.9577 133.1765  1.00271622  8082

JSON: /api/v1/satellites/54243 · /tle

For live sub-satellite position, see the globe view (requires WebGL).

§ Visibility from observer

Set your observer location to see the next 7 days of passes ≥ 10°. The values pass through the URL so the page stays shareable.

No JS? Fill the form by hand. The geolocation button needs JavaScript.